| time (UTC) | temp F | wind direction | speed knots | gust knots | rain 1hr in | rain 24hr in | rain mn in | humidity % | barometer mb |
| 20260504081512 | 35 | 55 | 0.0 | 0.0 | 0.00 | 0.00 | 0.00 | 91 | 1012.8 |
| 20260504060104 | 37 | 55 | 0.0 | 0.0 | 0.00 | 0.00 | 0.00 | 89 | 1012.7 |
| 20260504044601 | 39 | 55 | 0.0 | 0.0 | 0.00 | 0.00 | 0.00 | 85 | 1012.7 |
| 20260504043051 | 39 | 55 | 0.0 | 0.0 | 0.00 | 0.00 | 0.00 | 84 | 1012.6 |
| 20260504041550 | 40 | 55 | 0.0 | 0.0 | 0.00 | 0.00 | 0.00 | 82 | 1012.6 |
| 20260504040042 | 40 | 55 | 0.0 | 0.0 | 0.00 | 0.00 | 0.00 | 80 | 1012.4 |
| 20260504034550 | 41 | 55 | 0.0 | 0.0 | 0.00 | 0.00 | 0.00 | 79 | 1012.2 |
| 20260504033050 | 41 | 55 | 0.0 | 0.0 | 0.00 | 0.00 | 0.00 | 77 | 1012.0 |
| 20260504031536 | 42 | 55 | 0.0 | 0.0 | 0.00 | 0.00 | 0.00 | 75 | 1012.0 |
| 20260504030030 | 43 | 55 | 0.0 | 0.0 | 0.00 | 0.00 | 0.00 | 74 | 1011.9 |
| 20260504024530 | 44 | 55 | 0.0 | 0.0 | 0.00 | 0.00 | 0.00 | 71 | 1011.9 |
| 20260504023027 | 45 | 55 | 0.0 | 0.0 | 0.00 | 0.00 | 0.00 | 68 | 1011.8 |
| 20260504021534 | 46 | 55 | 0.0 | 0.0 | 0.00 | 0.00 | 0.00 | 66 | 1011.8 |
| 20260504020013 | 47 | 55 | 0.0 | 0.0 | 0.00 | 0.00 | 0.00 | 64 | 1011.8 |
| 20260504014502 | 48 | 55 | 0.0 | 0.0 | 0.00 | 0.00 | 0.00 | 61 | 1011.8 |
| 20260504013106 | 49 | 55 | 0.0 | 0.0 | 0.00 | 0.00 | 0.00 | 59 | 1011.7 |
| 20260504011559 | 50 | 55 | 0.0 | 0.9 | 0.00 | 0.00 | 0.00 | 56 | 1011.7 |
| 20260504010101 | 51 | 55 | 0.0 | 0.0 | 0.00 | 0.00 | 0.00 | 53 | 1011.5 |
| 20260504004556 | 52 | 55 | 0.0 | 0.0 | 0.00 | 0.00 | 0.00 | 51 | 1011.5 |
| 20260504003053 | 54 | 55 | 0.0 | 0.9 | 0.00 | 0.00 | 0.00 | 48 | 1011.2 |
| 20260504001609 | 55 | 55 | 0.0 | 1.7 | 0.00 | 0.00 | 0.00 | 45 | 1011.0 |
| 20260504000049 | 56 | 68 | 1.7 | 7.0 | 0.00 | 0.00 | 0.00 | 41 | 1010.8 |
| 20260503234546 | 57 | 74 | 1.7 | 10.4 | 0.00 | 0.00 | 0.00 | 40 | 1010.7 |
| 20260503233046 | 58 | 132 | 2.6 | 8.7 | 0.00 | 0.00 | 0.00 | 41 | 1010.6 |
| 20260503231545 | 58 | 101 | 1.7 | 9.6 | 0.00 | 0.00 | 0.00 | 39 | 1010.5 |
| 20260503230041 | 59 | 115 | 6.1 | 13.9 | 0.00 | 0.00 | 0.00 | 38 | 1010.4 |
| 20260503224541 | 59 | 100 | 4.3 | 10.4 | 0.00 | 0.00 | 0.00 | 37 | 1010.4 |
| 20260503223033 | 59 | 80 | 1.7 | 9.6 | 0.00 | 0.00 | 0.00 | 37 | 1010.3 |
| 20260503221538 | 59 | 96 | 2.6 | 15.6 | 0.00 | 0.00 | 0.00 | 38 | 1010.4 |
| 20260503220033 | 60 | 88 | 7.0 | 15.6 | 0.00 | 0.00 | 0.00 | 37 | 1010.4 |
| 20260503214529 | 60 | 109 | 6.1 | 13.9 | 0.00 | 0.00 | 0.00 | 37 | 1010.4 |
| 20260503213031 | 59 | 101 | 0.9 | 13.9 | 0.00 | 0.00 | 0.00 | 38 | 1010.3 |
| 20260503211524 | 59 | 87 | 2.6 | 9.6 | 0.00 | 0.00 | 0.00 | 37 | 1010.1 |
| 20260503210021 | 59 | 88 | 3.5 | 8.7 | 0.00 | 0.00 | 0.00 | 36 | 1010.2 |
| 20260503204524 | 59 | 130 | 0.9 | 12.2 | 0.00 | 0.00 | 0.00 | 40 | 1010.1 |
| 20260503203015 | 59 | 89 | 3.5 | 10.4 | 0.00 | 0.00 | 0.00 | 38 | 1010.4 |
| 20260503201524 | 59 | 107 | 3.5 | 12.2 | 0.00 | 0.00 | 0.00 | 35 | 1010.6 |
| 20260503200011 | 59 | 108 | 6.1 | 12.2 | 0.00 | 0.00 | 0.00 | 35 | 1010.5 |
| 20260503194507 | 59 | 72 | 4.3 | 15.6 | 0.00 | 0.00 | 0.00 | 35 | 1010.9 |
| 20260503193007 | 59 | 193 | 4.3 | 18.2 | 0.00 | 0.00 | 0.00 | 34 | 1011.0 |
| 20260503191506 | 59 | 238 | 6.1 | 14.8 | 0.00 | 0.00 | 0.00 | 34 | 1011.1 |
| 20260503190011 | 58 | 238 | 2.6 | 14.8 | 0.00 | 0.00 | 0.00 | 35 | 1011.4 |
| 20260503184502 | 58 | 286 | 2.6 | 18.2 | 0.00 | 0.00 | 0.00 | 35 | 1011.6 |
| 20260503183114 | 58 | 52 | 5.2 | 16.5 | 0.00 | 0.00 | 0.00 | 36 | 1011.7 |
| 20260503181623 | 57 | 144 | 5.2 | 14.8 | 0.00 | 0.00 | 0.00 | 38 | 1011.9 |
| 20260503180134 | 57 | 116 | 4.3 | 13.0 | 0.00 | 0.00 | 0.00 | 41 | 1011.9 |
| 20260503174559 | 56 | 222 | 1.7 | 15.6 | 0.00 | 0.00 | 0.00 | 40 | 1012.2 |
| 20260503173102 | 56 | 107 | 5.2 | 13.0 | 0.00 | 0.00 | 0.00 | 39 | 1012.4 |
| 20260503171551 | 55 | 82 | 7.8 | 17.4 | 0.00 | 0.00 | 0.00 | 40 | 1012.4 |